Location: ?????
(37.7324°N, 23.9257°E)
Time: 08:05:31
(UTC+00:00)

Meteor 2-3 Rocket - Pass Details

Date: 29 November 2020
Orbit: 842 x 885 km, 81.2° (Epoch: 17 January)

Event Time Altitude Azimuth Distance (km) Brightness Sun altitude
Rises 03:21:03 0° 196° (SSW) 3,428 6.8 -22.9°
Reaches altitude 10° 03:23:29 10° 200° (SSW) 2,502 6.1 -22.4°
Maximum altitude 03:29:07 63° 281° (W) 971 3.7 -21.3°
Drops below altitude 10° 03:34:51 10° 2° (N) 2,543 6.1 -20.2°
Sets 03:37:21 0° 6° (N) 3,490 6.8 -19.7°
